sat.trackr.live / text

‹ back to catalog

STARLINK-32904

NORAD 63198 · 2025-048R

PAYLOAD ACTIVE UNKNOWN

§ Identity

Operator
Country
US
Launch date
2025-03-13
Launch site
AFETR
Launch vehicle
Mass (kg)
RCS (m²)

Purposes: comms

External: N2YO · Heavens-Above · Gunter

§ Orbital elements

Epoch: 2026-05-24T21:55:57.461664Z

Period
94.27 min
Inclination
43.0002°
Eccentricity
0.0001496
Mean motion
15.27604602 rev/d
Perigee alt
481.9 km
Apogee alt
484.0 km
Semi-major
6,861.1 km
B*
5.8660e-4
RAAN
14.4965°
Arg perigee
274.1492°
Mean anomaly
85.9189°
Rev number
6,875

§ Raw data

STARLINK-329041 63198U 25048R   26144.91385951  .00015927  00000+0  58660-3 0  99952 63198  43.0002  14.4965 0001496 274.1492  85.9189 15.27604602 68755

JSON: /api/v1/satellites/63198 · /tle

For live sub-satellite position, see the globe view (requires WebGL).

§ Visibility from observer

Set your observer location to see the next 7 days of passes ≥ 10°. The values pass through the URL so the page stays shareable.

No JS? Fill the form by hand. The geolocation button needs JavaScript.